ネオワイズ彗星

C/2019 L2 ( NEOWISE )

English version
Home page
Updated on August 6, 2019

---------------------------------------------------------------------

・ プロフィール

発見日 2019年6月11日
発見光度 18等
発見者 Near-Earth Object Wide-field Infrared Survey Explorer

・ 写真集

・ 軌道要素

Epoch 2019 Mar. 18.0 TT = JDT 2458560.5                                         
T 2019 Apr. 1.79062 TT                                  MPCLINUX                
q   1.6192058            (2000.0)            P               Q                  
n   0.00825554     Peri.   18.62113     +0.98634649     -0.12996330             
a  24.2459455      Node    12.52265     -0.12369784     -0.99012558             
e   0.9332175      Incl.  152.19413     +0.10871727     +0.05254407             
P 119                                                                           
From 101 observations 2019 June 11-27, mean residual 0".7.                      

・ 光度変化

        m1 = 15.0 + 5 logΔ + 10.0 log r

---------------------------------------------------------------------

軌道要素はM.P.E.C. 2019-M93に掲載されたものです。
光度グラフはComet for Windowsで作成したものです。

---------------------------------------------------------------------

Copyright(C) Seiichi Yoshida (comet@aerith.net). All rights reserved.